ARG1322 SABE-SAZS

Flight info

Callsign ARG1322
Flight time 2h 9m
Altitude FL360
Route PAL9 TORUL UT654 ORERA ORER2Q
Aircraft B38M/M-SDE2E3FGHIRWXY/LB1

Departure

Time 2026-04-26 20:37
Airport Aeroparque Jorge Newbery (SABE)

Arrival

Time 2026-04-26 22:47
Airport Teniente Luis Candelaria International Airport (SAZS)
Time Latitude Longitude Altitude Speed Heading
2026-04-26 20:01 -34.55701 -58.41445 28 ft 0 kts 18°
2026-04-26 20:20 -34.55708 -58.41448 14 ft 4 kts 13°
2026-04-26 20:20 -34.55733 -58.41448 31 ft 4 kts 339°
2026-04-26 20:20 -34.55754 -58.41431 28 ft 4 kts 311°
2026-04-26 20:20 -34.55765 -58.41414 28 ft 0 kts 303°
2026-04-26 20:25 -34.55758 -58.41428 28 ft 4 kts 302°
2026-04-26 20:25 -34.55743 -58.41458 28 ft 8 kts 298°
2026-04-26 20:25 -34.55744 -58.41565 28 ft 12 kts 219°
2026-04-26 20:25 -34.55812 -58.41565 28 ft 12 kts 126°
2026-04-26 20:26 -34.55861 -58.41452 28 ft 19 kts 117°
2026-04-26 20:26 -34.55936 -58.41287 28 ft 25 kts 123°
2026-04-26 20:26 -34.56037 -58.41120 28 ft 12 kts 127°
2026-04-26 20:26 -34.56090 -58.41034 28 ft 14 kts 127°
2026-04-26 20:27 -34.56149 -58.40937 28 ft 15 kts 125°
2026-04-26 20:27 -34.56169 -58.40853 28 ft 11 kts 82°
2026-04-26 20:27 -34.56204 -58.40772 28 ft 12 kts 126°
2026-04-26 20:27 -34.56254 -58.40683 28 ft 13 kts 123°
2026-04-26 20:28 -34.56310 -58.40584 28 ft 15 kts 128°
2026-04-26 20:28 -34.56379 -58.40509 28 ft 6 kts 139°
2026-04-26 20:28 -34.56380 -58.40507 28 ft 0 kts 139°
2026-04-26 20:33 -34.56388 -58.40499 28 ft 3 kts 136°
2026-04-26 20:33 -34.56419 -58.40465 28 ft 5 kts 138°
2026-04-26 20:34 -34.56420 -58.40464 28 ft 0 kts 138°
2026-04-26 20:34 -34.56421 -58.40463 28 ft 1 kts 138°
2026-04-26 20:34 -34.56446 -58.40435 28 ft 10 kts 138°
2026-04-26 20:35 -34.56523 -58.40385 28 ft 13 kts 201°
2026-04-26 20:35 -34.56538 -58.40474 28 ft 14 kts 302°
2026-04-26 20:35 -34.56499 -58.40550 28 ft 0 kts 303°
2026-04-26 20:37 -34.56482 -58.40582 28 ft 26 kts 303°
2026-04-26 20:37 -34.56235 -58.41023 28 ft 98 kts 304°
2026-04-26 20:37 -34.55737 -58.41917 28 ft 155 kts 305°
2026-04-26 20:37 -34.55022 -58.42865 691 ft 151 kts 310°
2026-04-26 20:38 -34.54375 -58.43921 1190 ft 154 kts 292°
2026-04-26 20:38 -34.53552 -58.44764 1969 ft 178 kts 333°
2026-04-26 20:38 -34.52197 -58.44769 2392 ft 211 kts
2026-04-26 20:38 -34.50725 -58.44146 2774 ft 245 kts 29°
2026-04-26 20:39 -34.49496 -58.42531 3156 ft 278 kts 63°
2026-04-26 20:39 -34.48870 -58.40383 4318 ft 270 kts 71°
2026-04-26 20:39 -34.48088 -58.38269 5122 ft 281 kts 60°
2026-04-26 20:39 -34.46994 -58.36303 6073 ft 283 kts 49°
2026-04-26 20:40 -34.45623 -58.34559 6925 ft 287 kts 38°
2026-04-26 20:40 -34.44110 -58.32903 7624 ft 303 kts 44°
2026-04-26 20:40 -34.42766 -58.30854 8222 ft 319 kts 64°
2026-04-26 20:40 -34.42271 -58.28294 9197 ft 314 kts 96°
2026-04-26 20:41 -34.42826 -58.25792 9946 ft 307 kts 128°
2026-04-26 20:41 -34.44271 -58.23982 10514 ft 299 kts 159°
2026-04-26 20:41 -34.46218 -58.23286 10906 ft 294 kts 188°
2026-04-26 20:41 -34.48153 -58.23901 11343 ft 289 kts 217°
2026-04-26 20:42 -34.49524 -58.25639 11880 ft 291 kts 242°
2026-04-26 20:42 -34.50530 -58.27795 12480 ft 300 kts 233°
2026-04-26 20:42 -34.52052 -58.29536 13421 ft 302 kts 228°
2026-04-26 20:42 -34.53545 -58.31344 14086 ft 305 kts 230°
2026-04-26 20:43 -34.55012 -58.33191 14867 ft 304 kts 232°
2026-04-26 20:43 -34.56455 -58.35055 15640 ft 303 kts 233°
2026-04-26 20:43 -34.57883 -58.36925 16404 ft 303 kts 234°
2026-04-26 20:43 -34.59303 -58.38798 17160 ft 302 kts 236°
2026-04-26 20:44 -34.60719 -58.40675 17911 ft 301 kts 236°
2026-04-26 20:44 -34.62128 -58.42553 18582 ft 301 kts 237°
2026-04-26 20:44 -34.63534 -58.44443 19099 ft 304 kts 236°
2026-04-26 20:44 -34.64954 -58.46351 19616 ft 307 kts 236°
2026-04-26 20:45 -34.66386 -58.48277 20129 ft 309 kts 236°
2026-04-26 20:45 -34.67828 -58.50221 20647 ft 312 kts 236°
2026-04-26 20:45 -34.69281 -58.52183 21178 ft 314 kts 236°
2026-04-26 20:45 -34.70749 -58.54163 21670 ft 317 kts 236°
2026-04-26 20:46 -34.72224 -58.56156 22193 ft 319 kts 236°
2026-04-26 20:46 -34.73708 -58.58165 22681 ft 321 kts 236°
2026-04-26 20:46 -34.75205 -58.60190 23163 ft 324 kts 236°
2026-04-26 20:46 -34.76708 -58.62226 23622 ft 326 kts 236°
2026-04-26 20:47 -34.78221 -58.64278 23990 ft 328 kts 236°
2026-04-26 20:47 -34.79242 -58.65662 24243 ft 330 kts 236°
2026-04-26 20:47 -34.81289 -58.68446 24742 ft 333 kts 236°
2026-04-26 20:47 -34.82835 -58.70549 25102 ft 336 kts 236°
2026-04-26 20:48 -34.84394 -58.72672 25471 ft 338 kts 236°
2026-04-26 20:48 -34.85964 -58.74809 25839 ft 340 kts 236°
2026-04-26 20:48 -34.87480 -58.76877 26177 ft 343 kts 236°
2026-04-26 20:48 -34.89072 -58.79049 26512 ft 345 kts 236°
2026-04-26 20:49 -34.90676 -58.81240 26844 ft 348 kts 236°
2026-04-26 20:49 -34.92288 -58.83442 27177 ft 350 kts 236°
2026-04-26 20:49 -34.93910 -58.85661 27500 ft 353 kts 236°
2026-04-26 20:49 -34.95544 -58.87895 27824 ft 355 kts 236°
2026-04-26 20:50 -34.97188 -58.90147 28137 ft 357 kts 236°
2026-04-26 20:50 -34.98844 -58.92416 28448 ft 360 kts 235°
2026-04-26 20:50 -35.00509 -58.94700 28755 ft 362 kts 235°
2026-04-26 20:50 -35.02185 -58.96999 29058 ft 364 kts 235°
2026-04-26 20:51 -35.03868 -58.99311 29378 ft 366 kts 235°
2026-04-26 20:51 -35.05554 -59.01632 29776 ft 366 kts 235°
2026-04-26 20:51 -35.07233 -59.03949 30155 ft 365 kts 235°
2026-04-26 20:51 -35.08914 -59.06270 30469 ft 366 kts 235°
2026-04-26 20:52 -35.10597 -59.08594 30767 ft 366 kts 235°
2026-04-26 20:52 -35.12282 -59.10919 31062 ft 367 kts 235°
2026-04-26 20:52 -35.13970 -59.13250 31363 ft 367 kts 235°
2026-04-26 20:52 -35.15656 -59.15580 31657 ft 367 kts 235°
2026-04-26 20:53 -35.17344 -59.17912 31963 ft 368 kts 235°
2026-04-26 20:53 -35.19034 -59.20250 32252 ft 368 kts 235°
2026-04-26 20:53 -35.20727 -59.22593 32539 ft 368 kts 235°
2026-04-26 20:53 -35.22421 -59.24937 32821 ft 369 kts 235°
2026-04-26 20:54 -35.24114 -59.27281 33098 ft 369 kts 235°
2026-04-26 20:54 -35.25811 -59.29632 33378 ft 369 kts 235°
2026-04-26 20:54 -35.27512 -59.31988 33650 ft 370 kts 235°
2026-04-26 20:54 -35.29211 -59.34344 33901 ft 370 kts 235°
2026-04-26 20:55 -35.30914 -59.36705 34122 ft 371 kts 235°
2026-04-26 20:55 -35.32618 -59.39070 34319 ft 372 kts 235°
2026-04-26 20:55 -35.34326 -59.41442 34517 ft 373 kts 235°
2026-04-26 20:55 -35.36021 -59.43838 34715 ft 371 kts 239°
2026-04-26 20:56 -35.37487 -59.46415 34915 ft 370 kts 240°
2026-04-26 20:56 -35.38969 -59.48990 35103 ft 371 kts 239°
2026-04-26 20:56 -35.40464 -59.51560 35297 ft 372 kts 239°
2026-04-26 20:56 -35.41967 -59.54131 35499 ft 372 kts 239°
2026-04-26 20:57 -35.43473 -59.56704 35697 ft 373 kts 239°
2026-04-26 20:57 -35.44983 -59.59281 35875 ft 373 kts 239°
2026-04-26 20:57 -35.46496 -59.61865 35935 ft 374 kts 239°
2026-04-26 20:58 -35.49513 -59.67023 35945 ft 372 kts 238°
2026-04-26 20:58 -35.52525 -59.72181 35940 ft 372 kts 238°
2026-04-26 20:59 -35.55533 -59.77338 35948 ft 372 kts 238°
2026-04-26 20:59 -35.58539 -59.82500 35949 ft 372 kts 238°
2026-04-26 21:00 -35.61542 -59.87663 35950 ft 372 kts 238°
2026-04-26 21:00 -35.64543 -59.92831 35958 ft 372 kts 238°
2026-04-26 21:01 -35.67540 -59.98000 35959 ft 372 kts 238°
2026-04-26 21:01 -35.70533 -60.03170 35961 ft 372 kts 238°
2026-04-26 21:02 -35.73525 -60.08346 35969 ft 372 kts 238°
2026-04-26 21:02 -35.76518 -60.13531 35967 ft 372 kts 238°
2026-04-26 21:03 -35.79506 -60.18715 35967 ft 372 kts 238°
2026-04-26 21:03 -35.82497 -60.23914 35968 ft 372 kts 238°
2026-04-26 21:04 -35.85483 -60.29110 35975 ft 372 kts 238°
2026-04-26 21:04 -35.88465 -60.34307 35980 ft 372 kts 237°
2026-04-26 21:05 -35.91450 -60.39517 35981 ft 373 kts 237°
2026-04-26 21:05 -35.94433 -60.44732 35985 ft 373 kts 237°
2026-04-26 21:06 -35.97414 -60.49951 35990 ft 373 kts 237°
2026-04-26 21:06 -36.00395 -60.55178 35990 ft 373 kts 237°
2026-04-26 21:07 -36.03373 -60.60409 35991 ft 373 kts 237°
2026-04-26 21:07 -36.06347 -60.65638 35990 ft 373 kts 237°
2026-04-26 21:08 -36.09322 -60.70877 35993 ft 373 kts 237°
2026-04-26 21:08 -36.12293 -60.76117 35996 ft 373 kts 237°
2026-04-26 21:09 -36.15240 -60.81377 36006 ft 373 kts 237°
2026-04-26 21:09 -36.18187 -60.86639 36006 ft 373 kts 237°
2026-04-26 21:10 -36.21136 -60.91910 36004 ft 373 kts 237°
2026-04-26 21:10 -36.24081 -60.97182 36005 ft 373 kts 237°
2026-04-26 21:11 -36.27021 -61.02455 36013 ft 373 kts 237°
2026-04-26 21:11 -36.29964 -61.07739 36014 ft 373 kts 237°
2026-04-26 21:12 -36.32903 -61.13026 36013 ft 373 kts 237°
2026-04-26 21:12 -36.35840 -61.18316 36020 ft 373 kts 237°
2026-04-26 21:13 -36.38773 -61.23611 36022 ft 373 kts 237°
2026-04-26 21:13 -36.41706 -61.28917 36023 ft 373 kts 237°
2026-04-26 21:14 -36.44634 -61.34220 36025 ft 374 kts 237°
2026-04-26 21:14 -36.47565 -61.39538 36030 ft 374 kts 236°
2026-04-26 21:15 -36.50493 -61.44858 36027 ft 374 kts 236°
2026-04-26 21:15 -36.53418 -61.50182 36032 ft 374 kts 236°
2026-04-26 21:16 -36.56343 -61.55513 36034 ft 374 kts 236°
2026-04-26 21:16 -36.59264 -61.60846 36035 ft 374 kts 236°
2026-04-26 21:17 -36.62182 -61.66181 36037 ft 374 kts 236°
2026-04-26 21:17 -36.65099 -61.71523 36041 ft 374 kts 236°
2026-04-26 21:18 -36.68015 -61.76873 36043 ft 374 kts 236°
2026-04-26 21:18 -36.70930 -61.82227 36044 ft 374 kts 236°
2026-04-26 21:19 -36.73842 -61.87587 36041 ft 374 kts 236°
2026-04-26 21:19 -36.76753 -61.92952 36034 ft 374 kts 236°
2026-04-26 21:20 -36.79664 -61.98325 36054 ft 375 kts 236°
2026-04-26 21:20 -36.82575 -62.03706 36051 ft 375 kts 236°
2026-04-26 21:21 -36.85485 -62.09096 36054 ft 375 kts 236°
2026-04-26 21:21 -36.88396 -62.14496 36055 ft 376 kts 236°
2026-04-26 21:22 -36.91305 -62.19900 36056 ft 376 kts 236°
2026-04-26 21:22 -36.94214 -62.25313 36060 ft 376 kts 235°
2026-04-26 21:23 -36.98572 -62.33439 36066 ft 376 kts 235°
2026-04-26 21:23 -37.01478 -62.38867 36070 ft 376 kts 235°
2026-04-26 21:24 -37.04381 -62.44299 36068 ft 376 kts 235°
2026-04-26 21:24 -37.07283 -62.49739 36075 ft 377 kts 235°
2026-04-26 21:25 -37.10182 -62.55183 36083 ft 377 kts 235°
2026-04-26 21:25 -37.13084 -62.60638 36075 ft 377 kts 235°
2026-04-26 21:26 -37.15983 -62.66099 36088 ft 377 kts 235°
2026-04-26 21:26 -37.18882 -62.71568 36087 ft 378 kts 235°
2026-04-26 21:27 -37.21781 -62.77045 36090 ft 378 kts 235°
2026-04-26 21:27 -37.24679 -62.82531 36090 ft 378 kts 235°
2026-04-26 21:28 -37.27580 -62.88029 36090 ft 378 kts 234°
2026-04-26 21:28 -37.30480 -62.93532 36097 ft 379 kts 234°
2026-04-26 21:29 -37.33376 -62.99037 36098 ft 379 kts 234°
2026-04-26 21:29 -37.36274 -63.04551 36104 ft 379 kts 234°
2026-04-26 21:30 -37.39173 -63.10064 36109 ft 379 kts 234°
2026-04-26 21:30 -37.42074 -63.15588 36111 ft 379 kts 234°
2026-04-26 21:31 -37.44972 -63.21117 36115 ft 379 kts 234°
2026-04-26 21:31 -37.47866 -63.26647 36117 ft 379 kts 234°
2026-04-26 21:32 -37.50758 -63.32185 36116 ft 380 kts 234°
2026-04-26 21:32 -37.53653 -63.37734 36117 ft 380 kts 234°
2026-04-26 21:33 -37.56545 -63.43288 36124 ft 380 kts 234°
2026-04-26 21:33 -37.59434 -63.48845 36124 ft 380 kts 234°
2026-04-26 21:34 -37.62326 -63.54417 36126 ft 380 kts 234°
2026-04-26 21:34 -37.65214 -63.59992 36134 ft 381 kts 234°
2026-04-26 21:35 -37.68106 -63.65584 36133 ft 381 kts 234°
2026-04-26 21:35 -37.70994 -63.71177 36141 ft 381 kts 234°
2026-04-26 21:36 -37.73883 -63.76782 36143 ft 382 kts 234°
2026-04-26 21:36 -37.76774 -63.82399 36140 ft 382 kts 234°
2026-04-26 21:37 -37.79663 -63.88023 36146 ft 382 kts 234°
2026-04-26 21:37 -37.82553 -63.93660 36149 ft 383 kts 234°
2026-04-26 21:38 -37.85442 -63.99301 36150 ft 383 kts 234°
2026-04-26 21:38 -37.88331 -64.04954 36150 ft 383 kts 234°
2026-04-26 21:39 -37.91217 -64.10612 36154 ft 383 kts 234°
2026-04-26 21:39 -37.94103 -64.16278 36159 ft 384 kts 233°
2026-04-26 21:40 -37.96987 -64.21950 36161 ft 383 kts 233°
2026-04-26 21:40 -37.99866 -64.27622 36164 ft 384 kts 233°
2026-04-26 21:41 -38.02746 -64.33306 36170 ft 384 kts 233°
2026-04-26 21:41 -38.05621 -64.38987 36168 ft 384 kts 233°
2026-04-26 21:42 -38.08498 -64.44682 36172 ft 384 kts 233°
2026-04-26 21:42 -38.11366 -64.50386 36170 ft 384 kts 233°
2026-04-26 21:43 -38.14230 -64.56094 36181 ft 384 kts 233°
2026-04-26 21:43 -38.17097 -64.61814 36178 ft 384 kts 233°
2026-04-26 21:44 -38.19960 -64.67538 36179 ft 385 kts 233°
2026-04-26 21:44 -38.22823 -64.73272 36183 ft 385 kts 233°
2026-04-26 21:45 -38.25691 -64.79025 36182 ft 386 kts 233°
2026-04-26 21:45 -38.28556 -64.84783 36192 ft 386 kts 233°
2026-04-26 21:46 -38.31422 -64.90553 36187 ft 387 kts 233°
2026-04-26 21:46 -38.34291 -64.96338 36183 ft 387 kts 233°
2026-04-26 21:47 -38.37157 -65.02129 36193 ft 388 kts 233°
2026-04-26 21:47 -38.40027 -65.07938 36196 ft 388 kts 233°
2026-04-26 21:48 -38.42895 -65.13753 36193 ft 388 kts 233°
2026-04-26 21:48 -38.45764 -65.19581 36200 ft 389 kts 233°
2026-04-26 21:49 -38.48632 -65.25418 36199 ft 389 kts 233°
2026-04-26 21:49 -38.51499 -65.31263 36203 ft 390 kts 233°
2026-04-26 21:50 -38.54367 -65.37120 36204 ft 390 kts 233°
2026-04-26 21:50 -38.57234 -65.42987 36202 ft 390 kts 233°
2026-04-26 21:51 -38.60100 -65.48860 36209 ft 390 kts 233°
2026-04-26 21:51 -38.62962 -65.54739 36212 ft 391 kts 233°
2026-04-26 21:52 -38.65826 -65.60631 36210 ft 391 kts 233°
2026-04-26 21:52 -38.68689 -65.66532 36213 ft 391 kts 233°
2026-04-26 21:53 -38.71549 -65.72436 36213 ft 391 kts 233°
2026-04-26 21:53 -38.74408 -65.78351 36219 ft 391 kts 233°
2026-04-26 21:54 -38.77263 -65.84269 36220 ft 391 kts 233°
2026-04-26 21:54 -38.80119 -65.90197 36217 ft 392 kts 233°
2026-04-26 21:55 -38.82969 -65.96127 36220 ft 392 kts 233°
2026-04-26 21:55 -38.85817 -66.02058 36226 ft 391 kts 233°
2026-04-26 21:56 -38.88663 -66.07996 36220 ft 391 kts 233°
2026-04-26 21:56 -38.91500 -66.13946 36226 ft 392 kts 234°
2026-04-26 21:57 -38.94332 -66.19901 36227 ft 391 kts 233°
2026-04-26 21:57 -38.97161 -66.25863 36228 ft 391 kts 233°
2026-04-26 21:58 -38.99986 -66.31823 36232 ft 391 kts 233°
2026-04-26 21:58 -39.02808 -66.37789 36230 ft 391 kts 233°
2026-04-26 21:59 -39.05627 -66.43760 36233 ft 391 kts 233°
2026-04-26 21:59 -39.08441 -66.49733 36235 ft 391 kts 233°
2026-04-26 22:00 -39.11253 -66.55712 36235 ft 391 kts 233°
2026-04-26 22:00 -39.14060 -66.61691 36236 ft 391 kts 233°
2026-04-26 22:01 -39.16862 -66.67671 36237 ft 391 kts 233°
2026-04-26 22:01 -39.19662 -66.73659 36237 ft 391 kts 233°
2026-04-26 22:02 -39.22459 -66.79650 36238 ft 390 kts 233°
2026-04-26 22:02 -39.25250 -66.85639 36242 ft 391 kts 233°
2026-04-26 22:03 -39.28037 -66.91634 36241 ft 390 kts 233°
2026-04-26 22:03 -39.30823 -66.97636 36245 ft 390 kts 233°
2026-04-26 22:04 -39.33604 -67.03640 36246 ft 390 kts 233°
2026-04-26 22:04 -39.36384 -67.09651 36247 ft 391 kts 233°
2026-04-26 22:05 -39.39160 -67.15666 36244 ft 391 kts 233°
2026-04-26 22:05 -39.41936 -67.21694 36250 ft 391 kts 233°
2026-04-26 22:06 -39.44711 -67.27731 36253 ft 391 kts 233°
2026-04-26 22:06 -39.47481 -67.33766 36249 ft 391 kts 233°
2026-04-26 22:07 -39.50251 -67.39815 36253 ft 391 kts 233°
2026-04-26 22:07 -39.53016 -67.45864 36254 ft 391 kts 233°
2026-04-26 22:08 -39.55776 -67.51914 36254 ft 391 kts 234°
2026-04-26 22:08 -39.58536 -67.57977 36252 ft 391 kts 234°
2026-04-26 22:09 -39.61295 -67.64048 36256 ft 391 kts 234°
2026-04-26 22:09 -39.64049 -67.70121 36260 ft 391 kts 234°
2026-04-26 22:10 -39.66800 -67.76198 36261 ft 391 kts 234°
2026-04-26 22:10 -39.69548 -67.82279 36260 ft 391 kts 234°
2026-04-26 22:11 -39.72289 -67.88358 36264 ft 391 kts 234°
2026-04-26 22:11 -39.75031 -67.94447 36267 ft 391 kts 234°
2026-04-26 22:12 -39.77765 -68.00530 36266 ft 390 kts 234°
2026-04-26 22:12 -39.80494 -68.06608 36267 ft 389 kts 234°
2026-04-26 22:13 -39.83472 -68.12431 36273 ft 387 kts 232°
2026-04-26 22:13 -39.86440 -68.18260 36275 ft 387 kts 232°
2026-04-26 22:14 -39.89395 -68.24089 36278 ft 386 kts 232°
2026-04-26 22:14 -39.92342 -68.29916 36278 ft 386 kts 232°
2026-04-26 22:15 -39.95285 -68.35747 36276 ft 386 kts 232°
2026-04-26 22:15 -39.98224 -68.41580 36280 ft 385 kts 232°
2026-04-26 22:16 -40.01156 -68.47410 36282 ft 385 kts 232°
2026-04-26 22:16 -40.04088 -68.53251 36287 ft 385 kts 232°
2026-04-26 22:17 -40.07015 -68.59093 36287 ft 385 kts 232°
2026-04-26 22:17 -40.09940 -68.64941 36289 ft 385 kts 232°
2026-04-26 22:18 -40.12865 -68.70800 36291 ft 386 kts 232°
2026-04-26 22:18 -40.15788 -68.76668 36296 ft 386 kts 233°
2026-04-26 22:19 -40.18714 -68.82551 36298 ft 387 kts 233°
2026-04-26 22:19 -40.21641 -68.88447 36300 ft 387 kts 233°
2026-04-26 22:20 -40.24566 -68.94351 36298 ft 388 kts 233°
2026-04-26 22:20 -40.27491 -69.00266 36304 ft 388 kts 233°
2026-04-26 22:21 -40.30414 -69.06188 36302 ft 388 kts 233°
2026-04-26 22:21 -40.33337 -69.12117 36304 ft 388 kts 233°
2026-04-26 22:22 -40.36257 -69.18049 36304 ft 388 kts 233°
2026-04-26 22:22 -40.37709 -69.20999 36127 ft 381 kts 233°
2026-04-26 22:22 -40.39132 -69.23894 35687 ft 376 kts 233°
2026-04-26 22:23 -40.40538 -69.26756 35201 ft 373 kts 233°
2026-04-26 22:23 -40.41933 -69.29597 34704 ft 370 kts 233°
2026-04-26 22:23 -40.43315 -69.32416 34212 ft 367 kts 233°
2026-04-26 22:23 -40.44690 -69.35223 33651 ft 365 kts 233°
2026-04-26 22:24 -40.46053 -69.38009 33138 ft 362 kts 233°
2026-04-26 22:24 -40.47403 -69.40767 32667 ft 358 kts 233°
2026-04-26 22:24 -40.48739 -69.43503 32209 ft 355 kts 233°
2026-04-26 22:24 -40.50060 -69.46208 31736 ft 352 kts 233°
2026-04-26 22:25 -40.51373 -69.48900 31265 ft 349 kts 233°
2026-04-26 22:25 -40.52677 -69.51577 30802 ft 347 kts 233°
2026-04-26 22:25 -40.53970 -69.54233 30351 ft 345 kts 234°
2026-04-26 22:25 -40.55257 -69.56877 29811 ft 343 kts 234°
2026-04-26 22:26 -40.56535 -69.59506 29329 ft 340 kts 234°
2026-04-26 22:26 -40.57799 -69.62107 28883 ft 337 kts 234°
2026-04-26 22:26 -40.59050 -69.64685 28452 ft 333 kts 234°
2026-04-26 22:26 -40.60288 -69.67239 28008 ft 331 kts 234°
2026-04-26 22:27 -40.61518 -69.69778 27576 ft 328 kts 234°
2026-04-26 22:27 -40.62736 -69.72293 27160 ft 325 kts 234°
2026-04-26 22:27 -40.63943 -69.74789 26751 ft 323 kts 234°
2026-04-26 22:27 -40.65142 -69.77271 26339 ft 321 kts 234°
2026-04-26 22:28 -40.66334 -69.79738 25924 ft 319 kts 234°
2026-04-26 22:28 -40.67518 -69.82191 25534 ft 317 kts 234°
2026-04-26 22:28 -40.68694 -69.84630 25148 ft 315 kts 234°
2026-04-26 22:28 -40.69863 -69.87057 24756 ft 313 kts 234°
2026-04-26 22:29 -40.71024 -69.89470 24375 ft 312 kts 234°
2026-04-26 22:29 -40.72182 -69.91875 23992 ft 311 kts 234°
2026-04-26 22:29 -40.73334 -69.94273 23573 ft 310 kts 234°
2026-04-26 22:29 -40.74480 -69.96659 23161 ft 307 kts 234°
2026-04-26 22:30 -40.75617 -69.99029 22778 ft 305 kts 234°
2026-04-26 22:30 -40.76742 -70.01374 22417 ft 302 kts 234°
2026-04-26 22:30 -40.77856 -70.03699 22067 ft 299 kts 235°
2026-04-26 22:30 -40.78956 -70.05995 21721 ft 295 kts 235°
2026-04-26 22:31 -40.80040 -70.08261 21392 ft 291 kts 235°
2026-04-26 22:31 -40.81113 -70.10506 21054 ft 289 kts 235°
2026-04-26 22:31 -40.82180 -70.12739 20729 ft 289 kts 235°
2026-04-26 22:31 -40.83259 -70.14998 20385 ft 294 kts 235°
2026-04-26 22:32 -40.84352 -70.17290 20053 ft 296 kts 235°
2026-04-26 22:32 -40.85448 -70.19590 19712 ft 296 kts 235°
2026-04-26 22:32 -40.86541 -70.21885 19380 ft 295 kts 235°
2026-04-26 22:32 -40.87630 -70.24172 19050 ft 294 kts 235°
2026-04-26 22:33 -40.88711 -70.26444 18712 ft 291 kts 235°
2026-04-26 22:33 -40.90841 -70.30929 17999 ft 285 kts 235°
2026-04-26 22:33 -40.91887 -70.33131 17667 ft 282 kts 235°
2026-04-26 22:34 -40.92918 -70.35304 17350 ft 277 kts 235°
2026-04-26 22:34 -40.93933 -70.37445 17038 ft 274 kts 235°
2026-04-26 22:34 -40.94938 -70.39564 16726 ft 271 kts 235°
2026-04-26 22:34 -40.95931 -70.41661 16422 ft 269 kts 235°
2026-04-26 22:35 -40.96927 -70.43766 16105 ft 273 kts 236°
2026-04-26 22:35 -40.98057 -70.45789 15765 ft 276 kts 229°
2026-04-26 22:35 -40.99281 -70.47746 15465 ft 277 kts 229°
2026-04-26 22:35 -41.00493 -70.49710 15159 ft 275 kts 230°
2026-04-26 22:36 -41.01688 -70.51663 14853 ft 272 kts 230°
2026-04-26 22:36 -41.02868 -70.53601 14545 ft 270 kts 230°
2026-04-26 22:36 -41.04037 -70.55522 14241 ft 268 kts 230°
2026-04-26 22:36 -41.05234 -70.57458 13619 ft 276 kts 230°
2026-04-26 22:37 -41.06456 -70.59437 13069 ft 280 kts 230°
2026-04-26 22:37 -41.07690 -70.61439 12555 ft 281 kts 230°
2026-04-26 22:37 -41.08908 -70.63418 12045 ft 275 kts 230°
2026-04-26 22:37 -41.10099 -70.65354 11541 ft 268 kts 230°
2026-04-26 22:38 -41.11263 -70.67248 11031 ft 263 kts 231°
2026-04-26 22:38 -41.12405 -70.69107 10560 ft 257 kts 231°
2026-04-26 22:38 -41.13496 -70.70885 10440 ft 239 kts 231°
2026-04-26 22:38 -41.14525 -70.72562 10193 ft 233 kts 231°
2026-04-26 22:39 -41.15538 -70.74215 9778 ft 228 kts 231°
2026-04-26 22:39 -41.16516 -70.75811 9424 ft 220 kts 232°
2026-04-26 22:39 -41.17462 -70.77354 9075 ft 212 kts 232°
2026-04-26 22:39 -41.18375 -70.78846 8748 ft 206 kts 233°
2026-04-26 22:40 -41.19263 -70.80297 8409 ft 201 kts 233°
2026-04-26 22:40 -41.20138 -70.81725 8015 ft 199 kts 234°
2026-04-26 22:40 -41.21016 -70.83163 7586 ft 203 kts 234°
2026-04-26 22:40 -41.21906 -70.84621 7175 ft 204 kts 235°
2026-04-26 22:41 -41.22803 -70.86090 6691 ft 206 kts 235°
2026-04-26 22:41 -41.23705 -70.87585 6202 ft 208 kts 238°
2026-04-26 22:41 -41.24136 -70.89341 5914 ft 198 kts 272°
2026-04-26 22:41 -41.23762 -70.91032 5770 ft 189 kts 295°
2026-04-26 22:42 -41.23208 -70.92511 5708 ft 169 kts 292°
2026-04-26 22:42 -41.22717 -70.93896 5640 ft 164 kts 291°
2026-04-26 22:42 -41.22244 -70.95252 5606 ft 159 kts 291°
2026-04-26 22:42 -41.21791 -70.96555 5610 ft 154 kts 291°
2026-04-26 22:43 -41.21351 -70.97824 5619 ft 149 kts 292°
2026-04-26 22:43 -41.20903 -70.99110 5325 ft 156 kts 293°
2026-04-26 22:43 -41.20441 -71.00445 5213 ft 162 kts 293°
2026-04-26 22:43 -41.19963 -71.01818 5055 ft 162 kts 293°
2026-04-26 22:44 -41.19521 -71.03091 4848 ft 146 kts 292°
2026-04-26 22:44 -41.19104 -71.04295 4664 ft 142 kts 293°
2026-04-26 22:44 -41.18691 -71.05479 4379 ft 141 kts 293°
2026-04-26 22:44 -41.18283 -71.06658 4161 ft 142 kts 294°
2026-04-26 22:45 -41.17870 -71.07848 3898 ft 143 kts 295°
2026-04-26 22:45 -41.17456 -71.09042 3673 ft 142 kts 294°
2026-04-26 22:45 -41.17042 -71.10231 3484 ft 142 kts 294°
2026-04-26 22:45 -41.16631 -71.11413 3315 ft 141 kts 294°
2026-04-26 22:46 -41.16221 -71.12586 3110 ft 141 kts 295°
2026-04-26 22:46 -41.15814 -71.13765 2874 ft 141 kts 294°
2026-04-26 22:46 -41.15414 -71.14930 2763 ft 132 kts 295°
2026-04-26 22:46 -41.15080 -71.15871 2758 ft 86 kts 295°
2026-04-26 22:47 -41.14942 -71.16267 2756 ft 14 kts 297°
2026-04-26 22:47 -41.14878 -71.16332 2759 ft 8 kts 15°
2026-04-26 22:47 -41.14828 -71.16304 2758 ft 0 kts 26°
2026-04-26 22:47 -41.14813 -71.16294 2755 ft 4 kts 26°
2026-04-26 22:48 -41.14783 -71.16273 2754 ft 6 kts 31°
2026-04-26 22:48 -41.14747 -71.16243 2752 ft 6 kts 37°
2026-04-26 22:48 -41.14738 -71.16232 2752 ft 0 kts 45°
2026-04-26 22:48 -41.14738 -71.16231 2752 ft 1 kts 46°
2026-04-26 22:49 -41.14730 -71.16219 2752 ft 3 kts 50°
2026-04-26 22:49 -41.14715 -71.16194 2754 ft 4 kts 56°
2026-04-26 22:49 -41.14706 -71.16175 2755 ft 2 kts 58°
2026-04-26 22:49 -41.14700 -71.16162 2754 ft 1 kts 58°
2026-04-26 22:50 -41.14698 -71.16159 2751 ft 0 kts 58°